www.pogodaiklimat.ru

Погода и климат >> Архив погоды >> Россия >> Магаданская область >> Лабазная


ПОГОДА в Лабазной

  • Прогноз погоды в Лабазной
  • Монитор погоды в Лабазной

АРХИВ ПОГОДЫ в Лабазной

Время (UTC), дата Ветер
(напр.,м/с)
 
Видим.   Явления Облачность Т
(С)
Тd
(С)
f
(%)
Тe
(С)
Тes
(С)
Комфортность P
(гПа)
Po
(гПа)
Тmin
(С)
Tmax
(С)
R
(мм)
R24
(мм)
S
(см)
00 18.03 штиль 0 20 км слаб. снег 10/0
[Cs]
-25.0 -28.7 71 -25 -21 1012.7 919.3
03 18.03 Ю 3 50 км {снег} 8/0
[Ci fib]
-22.1 -28.1 58 -30 -28 1010.7 918.5
06 18.03 Ю 3 50 км {снег} 8/0
[Ac As]
-23.3 -27.6 68 -32 -31 опасность
обморожения
1011.1 918.4
09 18.03 штиль 0 50 км 3/0
[Ci fib]
-27.6 -31.1 72 -28 -28 1014.1 919.5 -20.8 0.2
12 18.03 штиль 0 50 км 6/0
[Ci fib]
-30.3 -33.2 76 -30 -30 1015.4 919.7
15 18.03 штиль 0 50 км 10/0
[As trans]
-28.4 -31.2 77 -28 -28 1014.6 919.8
18 18.03 штиль 0 50 км 10/0
[As trans]
-28.1 -30.9 77 -28 -28 1014.5 919.8
21 18.03 ЮЗ 3 50 км 9/0
[Ac trans Ci fib]
-26.8 -31.3 66 -36 -35 опасность
обморожения
1014.9 920.6 -32.5 43
00 19.03 ЮЗ 2 50 км 10/0
[Cs]
-23.7 -30.3 54 -30 -27 1014.4 921.3
03 19.03 СЗ 3 50 км 9/0
[Ci fib]
-22.8 -30.4 50 -31 -28 опасность
обморожения
1014.8 921.9
06 19.03 С 4 50 км 10/0
[Cs]
-23.4 -30.2 54 -33 -33 опасность
обморожения
1015.6 922.5
09 19.03 З 2 50 км 10/0
[Cs]
-24.1 -30.4 56 -31 -31 опасность
обморожения
1017.2 923.7 -21.8
12 19.03 ЮЗ 1 50 км 10/0
[Cs]
-26.1 -30.3 68 -30 -30 1018.8 924.4
15 19.03 штиль 0 50 км 10/0
[Cs]
-27.9 -30.7 77 -28 -28 1020.1 924.9
18 19.03 Ю 1 50 км 10/0
[Cs]
-31.3 -34.3 75 -36 -36 опасность
обморожения
1022.3 925.7
21 19.03 Ю 1 50 км 8/0
[Ci fib]
-31.7 -35.0 72 -36 -35 опасность
обморожения
1023.1 926.2 -35.1 43
00 20.03 штиль 0 50 км 8/0
[Ci fib]
-24.1 -29.3 62 -24 -19 1020.5 926.7
03 20.03 СВ 4 50 км 4/0
[Ci fib]
-21.5 -29.0 51 -31 -28 опасность
обморожения
1019.0 926.2
06 20.03 СВ 4 50 км 3/0
[Ci fib]
-22.0 -28.9 53 -31 -31 опасность
обморожения
1020.0 926.9
09 20.03 СВ 2 50 км ясно -28.1 -32.9 63 -35 -35 опасность
обморожения
1023.8 928.2 -20.7
12 20.03 СВ 1 50 км ясно -31.4 -34.5 74 -36 -36 опасность
обморожения
1026.0 929.0
15 20.03 СВ 1 50 км ясно -33.9 -36.6 76 -38 -38 опасность
обморожения
1027.7 929.5
18 20.03 СВ 1 50 км ясно -36.4 -40.1 68 -41 -41 опасность
обморожения
1029.1 929.8
21 20.03 С 1 50 км ясно -34.0 -37.5 70 -39 -38 опасность
обморожения
1028.4 930.1 -37.5 43
00 21.03 С 2 50 км 8/0
[Ac trans Ci fib]
-25.9 -30.5 65 -33 -30 опасность
обморожения
1025.1 930.2
03 21.03 СВ 5 50 км 10/3 1000 м
[Sc As op]
-21.2 -25.9 66 -32 -31 опасность
обморожения
1022.6 929.6
06 21.03 В 4 50 км 10/5 1000 м
[Sc As op]
-20.5 -24.2 72 -30 -29 1022.7 929.9
09 21.03 В 4 50 км 10/3 1000 м
[Sc As op]
-21.0 -24.4 74 -30 -30 1023.5 930.5 -20.5
12 21.03 В 4 50 км 10/3 1000 м
[Sc As op]
-20.2 -23.3 76 -29 -29 1023.7 930.9
15 21.03 В 4 10 км слаб. снег 10/3 1000 м
[Sc As op]
-20.5 -23.2 79 -30 -30 1024.0 931.1
18 21.03 С 2 10 км слаб. снег 10/3 1000 м
[Sc As op]
-21.6 -24.1 80 -28 -28 1024.9 931.5
21 21.03 СВ 2 50 км в посл. час снег 10/0
[As op]
-20.9 -23.7 78 -27 -27 1025.1 932.0 -21.6 0.2 43
00 22.03 СВ 3 50 км {снег} 10/0
[As trans]
-18.0 -21.6 73 -25 -24 1024.1 932.1
03 22.03 В 4 50 км 10/0
[As trans]
-15.2 -19.4 70 -23 -22 1022.8 931.8
06 22.03 В 3 50 км 10/0
[As trans]
-13.5 -17.1 74 -20 -19 1022.0 931.7
09 22.03 СВ 3 50 км 10/0
[As trans]
-14.8 -17.1 83 -21 -21 1022.3 931.5 -13.5
12 22.03 С 2 50 км 8/0
[Ac trans]
-15.8 -17.8 85 -21 -21 1022.4 931.3
15 22.03 С 2 50 км 8/0
[Ac As]
-18.7 -20.2 88 -24 -24 1022.3 930.2
18 22.03 С 1 50 км 4/0
[Ac trans]
-20.1 -21.8 86 -23 -23 1021.4 928.9
21 22.03 С 2 50 км 4/0
[Ac trans]
-17.9 -19.6 86 -23 -23 1019.6 928.0 -21.1 43
00 23.03 СВ 6 50 км 4/0
[Ci fib]
-12.4 -15.6 77 -21 -20 1015.7 926.3
03 23.03 СВ 7 50 км 8/0
[Cs]
-10.8 -14.7 73 -20 -19 1012.9 924.3
06 23.03 СВ 4 50 км 10/0
[Cs]
-10.6 -16.6 61 -18 -17 1011.4 923.0
09 23.03 СВ 5 50 км 10/0
[Cs]
-12.8 -17.7 67 -21 -21 1011.3 922.2 -10.2
12 23.03 В 6 50 км 10/0
[Ci fib]
-14.3 -18.0 73 -24 -24 1011.3 921.6
15 23.03 С 2 50 км 4/0
[Ci fib]
-17.8 -20.1 82 -23 -23 1011.1 920.3
18 23.03 С 1 50 км ясно -22.6 -24.5 84 -26 -26 1012.2 919.6
21 23.03 штиль 0 50 км 6/0
[Ci fib]
-23.0 -25.3 81 -23 -22 1011.2 918.6 -26.8 43
00 24.03 С 2 50 км 8/0
[Ci fib]
-14.0 -19.5 63 -19 -15 1006.3 917.2
03 24.03 В 5 50 км 3/0
[Ci fib]
-9.6 -17.2 54 -17 -15 1003.4 915.9
06 24.03 В 1 50 км ясно -8.0 -17.9 45 -10 -9 1001.9 915.1
09 24.03 ЮВ 1 50 км ясно -21.2 -25.0 71 -24 -24 1006.3 914.8 -7.8
12 24.03 Ю 2 50 км ясно -26.6 -28.6 83 -34 -34 опасность
обморожения
1007.4 913.9
15 24.03 Ю 1 50 км ясно -25.1 -27.3 82 -29 -29 1005.2 912.4
18 24.03 Ю 1 50 км ясно -24.8 -27.1 81 -28 -28 1004.7 912.0
21 24.03 Ю 3 50 км 4/0
[Ci fib]
-19.0 -23.8 66 -26 -26 1002.6 912.1 -28.0 43

 

Местоположение метеостанции Лабазная (Магаданская область, Россия): широта 63.30 долгота 158.50 высота над уровнем моря 709 м.

В архиве по умолчанию представлена погода в Лабазной за последнюю неделю. Архивные данные за месяц целиком и за предыдущие месяцы, начиная с января 2011 года, Вы можете получить, выбрав интересующий диапазон дат из раскрывающегося списка и нажав кнопку "Ввод!".


*Определитесь, кто Вы:
робот инопланетянин человек

Внимание! Время в таблицах - всемирное. Для получения местного времени необходимо прибавить поправку, которая равна 11 ч.

Смотрите также архив погоды в соседних городах и на ближайших метеорологических станциях:

Погода в Эвенске (Магаданская область, Россия) (158 км)
Погода в Омсукчане (Магаданская область, Россия) (162 км)
Погода в Кегали (Магаданская область, Россия) (162 км)
Погода в Балыгычане (Магаданская область, Россия) (228 км)
Погода в Омолоне (Чукотка, Россия) (235 км)
Погода в Коркодоне (Магаданская область, Россия) (276 км)
Погода в Верхне-Пенжино (Камчатский край, Россия) (298 км)
Погода в Сеймчане (Магаданская область, Россия) (310 км)
Погода на Шелихова (Магаданская область, Россия) (320 км)
Погода в Среднекане (Магаданская область, Россия) (328 км)

Пояснения к столбцам:

Ветер - указаны скорость ветра в м/с - средняя за 10 мин, порывы в срок и между сроками (в фигурных скобках) и направление, откуда дует ветер: С - северный, СВ - северо-восточный, В - восточный, ЮВ - юго-восточный, Ю - южный, ЮЗ - юго-западный, З - западный, СЗ - северо-западный.
Видимость - горизонтальная дальность видимости в метрах или километрах. При видимости от 1 до 10 км при отсутствии осадков обычно наблюдается дымка, при ухудшении видимости до 1 км и менее - туман. В сухую погоду видимость может ухудшаться дымом, пылью или мглою.
Явления - указаны атмосферные явления, наблюдавшиеся в срок или в последний час перед сроком; фигурными скобками обозначены явления, наблюдавшиеся между сроками (за 1-3 часа до срока); квадратными скобками обозначены град или гололедные отложения с указанием их диаметра в мм.
Облачность - указаны через наклонную черту общая и нижняя облачность в баллах и высота нижней границы облаков в метрах; квадратными скобками обозначены формы облаков: Ci - перистые, Cs - перисто-слоистые, Cc - перисто-кучевые, Ac - высококучевые, As - высокослоистые, Sc - слоисто-кучевые, Ns - слоисто-дождевые, Cu - кучевые, Cb - кучево-дождевые. Подробнее классификацию облаков см. в Атласе облаков (PDF).
T - Температура воздуха - температура, измеренная на высоте 2 м над землей.
Td - Температура точки росы - температура, при понижении до которой содержащийся в воздухе водяной пар достигнет насыщения.
f - Относительная влажность воздуха - влажноcть воздуха, измеренная на высоте 2 м над землей.
Te - Эффективная температура - температура, которую ощущает одетый по сезону человек в тени. Характеристика душности погоды. При расчете учитывается влияние влажности воздуха и скорости ветра на теплоощущения человека.
Tes - Эффективная температура на солнце - температура, которую ощущает человек, с поправкой на солнечный нагрев. Характеристика знойности погоды. Зависит от высоты солнца над горизонтом, облачности и скорости ветра. Ночью, в пасмурную погоду, а также при ветре 12 м/с и более поправка равна нулю.
P - Атмосферное давление - приведенное к уровню моря атмосферное давление.
Po - Атмосферное давление - измеренное на уровне метеостанции атмосферное давление.
Tmin - Минимальная температура - минимум температуры воздуха на высоте 2 м над землей.
Tmax - Максимальная температура - максимум температуры воздуха на высоте 2 м над землей.
R - Количество осадков - Количество выпавших осадков за период времени, мм. При наведении курсора мыши на число - период времени, за который выпало указанное количество осадков.
R24 - Количество осадков - Количество выпавших осадков за 24 часа, мм.
S - Снежный покров - Высота снежного покрова, см. При наведении курсора мыши на число - состояние снежного покрова и степень покрытия местности в баллах.